| time (UTC) | temp F | wind direction | speed MPH | gust MPH | rain 1hr in | rain 24hr in | rain mn in | humidity % | barometer mb |
| 20260831193057 | 97 | 296 | 2.0 | 6.0 | 0.00 | 0.00 | 0.00 | 46 | 1018.1 |
| 20260831191553 | 96 | 0 | 0.0 | 6.0 | 0.00 | 0.00 | 0.00 | 50 | 1018.3 |
| 20260831190106 | 95 | 0 | 0.0 | 3.0 | 0.00 | 0.00 | 0.00 | 49 | 1018.3 |
| 20260831184547 | 94 | 0 | 0.0 | 0.0 | 0.00 | 0.00 | 0.00 | 52 | 1018.5 |
| 20260831183043 | 93 | 0 | 1.0 | 3.0 | 0.00 | 0.00 | 0.00 | 53 | 1018.9 |
| 20260831181547 | 93 | 0 | 1.0 | 6.0 | 0.00 | 0.00 | 0.00 | 52 | 1019.3 |
| 20260831174553 | 95 | 290 | 2.0 | 6.0 | 0.00 | 0.00 | 0.00 | 53 | 1019.5 |
| 20260831173048 | 94 | 281 | 1.0 | 7.0 | 0.00 | 0.00 | 0.00 | 54 | 1019.6 |
| 20260831171558 | 93 | 160 | 0.0 | 4.0 | 0.00 | 0.00 | 0.00 | 55 | 1019.7 |
| 20260831170051 | 95 | 0 | 0.0 | 4.0 | 0.00 | 0.00 | 0.00 | 52 | 1019.9 |
| 20260831164625 | 94 | 0 | 0.0 | 3.0 | 0.00 | 0.00 | 0.00 | 55 | 1020.0 |
| 20260831163047 | 93 | 159 | 1.0 | 4.0 | 0.00 | 0.00 | 0.00 | 56 | 1020.1 |
| 20260831161558 | 93 | 289 | 1.0 | 5.0 | 0.00 | 0.00 | 0.00 | 56 | 1020.0 |
| 20260831160049 | 94 | 0 | 1.0 | 5.0 | 0.00 | 0.00 | 0.00 | 54 | 1020.1 |
| 20260831154618 | 93 | 198 | 0.0 | 5.0 | 0.00 | 0.00 | 0.00 | 56 | 1020.0 |
| 20260831153103 | 93 | 147 | 1.0 | 4.0 | 0.00 | 0.00 | 0.00 | 57 | 1020.1 |
| 20260831151557 | 92 | 0 | 1.0 | 5.0 | 0.00 | 0.00 | 0.00 | 60 | 1019.8 |
| 20260831150049 | 90 | 0 | 0.0 | 5.0 | 0.00 | 0.00 | 0.00 | 61 | 1020.0 |
| 20260831144559 | 90 | 286 | 0.0 | 3.0 | 0.00 | 0.00 | 0.00 | 63 | 1020.0 |
| 20260831143102 | 89 | 0 | 0.0 | 1.0 | 0.00 | 0.00 | 0.00 | 65 | 1019.8 |
| 20260831141615 | 87 | 0 | 0.0 | 2.0 | 0.00 | 0.00 | 0.00 | 67 | 1019.9 |
| 20260831140058 | 86 | 0 | 0.0 | 3.0 | 0.00 | 0.00 | 0.00 | 68 | 1019.9 |
| 20260831134605 | 85 | 0 | 0.0 | 1.0 | 0.00 | 0.00 | 0.00 | 71 | 1019.9 |
| 20260831133048 | 84 | 0 | 0.0 | 0.0 | 0.00 | 0.00 | 0.00 | 72 | 1019.9 |
| 20260831131641 | 82 | 0 | 0.0 | 1.0 | 0.00 | 0.00 | 0.00 | 74 | 1019.7 |
| 20260831130055 | 81 | 0 | 0.0 | 4.0 | 0.00 | 0.00 | 0.00 | 75 | 1019.6 |
| 20260831124547 | 80 | 0 | 0.0 | 4.0 | 0.00 | 0.00 | 0.00 | 78 | 1019.6 |
| 20260831123048 | 77 | 0 | 0.0 | 0.0 | 0.00 | 0.00 | 0.00 | 82 | 1019.4 |
| 20260831121553 | 75 | 0 | 0.0 | 0.0 | 0.00 | 0.00 | 0.00 | 85 | 1019.2 |
| 20260831120055 | 74 | 0 | 0.0 | 0.0 | 0.00 | 0.00 | 0.00 | 87 | 1019.1 |
| 20260831114548 | 74 | 0 | 0.0 | 0.0 | 0.00 | 0.00 | 0.00 | 86 | 1018.9 |
| 20260831113050 | 74 | 0 | 0.0 | 0.0 | 0.00 | 0.00 | 0.00 | 85 | 1018.8 |
| 20260831111605 | 74 | 0 | 0.0 | 0.0 | 0.00 | 0.00 | 0.00 | 85 | 1018.8 |
| 20260831110054 | 74 | 0 | 0.0 | 0.0 | 0.00 | 0.00 | 0.00 | 85 | 1018.6 |
| 20260831104556 | 75 | 0 | 0.0 | 0.0 | 0.00 | 0.00 | 0.00 | 84 | 1018.3 |
| 20260831103047 | 75 | 0 | 0.0 | 0.0 | 0.00 | 0.00 | 0.00 | 84 | 1018.3 |
| 20260831101554 | 75 | 0 | 0.0 | 0.0 | 0.00 | 0.00 | 0.00 | 84 | 1018.2 |
| 20260831094547 | 75 | 0 | 0.0 | 0.0 | 0.00 | 0.00 | 0.00 | 84 | 1018.0 |
| 20260831093058 | 75 | 0 | 0.0 | 0.0 | 0.00 | 0.00 | 0.00 | 83 | 1017.9 |
| 20260831091552 | 76 | 0 | 0.0 | 0.0 | 0.00 | 0.00 | 0.00 | 83 | 1018.0 |
| 20260831090052 | 76 | 0 | 0.0 | 0.0 | 0.00 | 0.00 | 0.00 | 82 | 1017.9 |
| 20260831084554 | 76 | 0 | 0.0 | 0.0 | 0.00 | 0.00 | 0.00 | 81 | 1017.8 |
| 20260831083104 | 77 | 0 | 0.0 | 0.0 | 0.00 | 0.00 | 0.00 | 81 | 1017.6 |
| 20260831081554 | 77 | 0 | 0.0 | 0.0 | 0.00 | 0.00 | 0.00 | 80 | 1017.6 |
| 20260831080049 | 78 | 0 | 0.0 | 0.0 | 0.00 | 0.00 | 0.00 | 79 | 1017.7 |
| 20260831074549 | 78 | 0 | 0.0 | 0.0 | 0.00 | 0.00 | 0.00 | 78 | 1017.6 |
| 20260831073057 | 78 | 0 | 0.0 | 0.0 | 0.00 | 0.00 | 0.00 | 78 | 1017.6 |
| 20260831071549 | 78 | 0 | 0.0 | 0.0 | 0.00 | 0.00 | 0.00 | 77 | 1017.6 |
| 20260831070050 | 79 | 0 | 0.0 | 0.0 | 0.00 | 0.00 | 0.00 | 76 | 1017.6 |
| 20260831064557 | 79 | 0 | 0.0 | 0.0 | 0.00 | 0.00 | 0.00 | 76 | 1017.7 |
| 20260831063051 | 80 | 0 | 0.0 | 0.0 | 0.00 | 0.00 | 0.00 | 75 | 1017.8 |
| 20260831061548 | 80 | 0 | 0.0 | 0.0 | 0.00 | 0.00 | 0.00 | 74 | 1017.9 |
| 20260831054558 | 82 | 0 | 0.0 | 0.0 | 0.00 | 0.00 | 0.00 | 71 | 1018.0 |
| 20260831053053 | 82 | 0 | 0.0 | 0.0 | 0.00 | 0.00 | 0.00 | 71 | 1017.9 |
| 20260831051607 | 83 | 0 | 0.0 | 1.0 | 0.00 | 0.00 | 0.00 | 69 | 1017.9 |
| 20260831050055 | 83 | 0 | 0.0 | 0.0 | 0.00 | 0.00 | 0.00 | 68 | 1017.8 |
| 20260831044602 | 84 | 0 | 0.0 | 1.0 | 0.00 | 0.00 | 0.00 | 68 | 1017.8 |
| 20260831043048 | 84 | 0 | 0.0 | 0.0 | 0.00 | 0.00 | 0.00 | 67 | 1017.9 |
| 20260831041600 | 84 | 0 | 0.0 | 3.0 | 0.00 | 0.00 | 0.00 | 66 | 1017.9 |
| 20260831040049 | 85 | 0 | 0.0 | 0.0 | 0.00 | 0.00 | 0.00 | 65 | 1017.9 |
| 20260831034554 | 85 | 0 | 0.0 | 0.0 | 0.00 | 0.00 | 0.00 | 65 | 1017.7 |
| 20260831033113 | 85 | 0 | 0.0 | 0.0 | 0.00 | 0.00 | 0.00 | 64 | 1017.8 |
| 20260831031603 | 86 | 0 | 0.0 | 0.0 | 0.00 | 0.00 | 0.00 | 63 | 1017.7 |
| 20260831030050 | 86 | 0 | 0.0 | 1.0 | 0.00 | 0.00 | 0.00 | 63 | 1017.6 |
| 20260831024548 | 87 | 0 | 0.0 | 2.0 | 0.00 | 0.00 | 0.00 | 63 | 1017.3 |
| 20260831023056 | 87 | 119 | 0.0 | 3.0 | 0.00 | 0.00 | 0.00 | 63 | 1017.4 |
| 20260831021552 | 87 | 0 | 0.0 | 1.0 | 0.00 | 0.00 | 0.00 | 62 | 1017.1 |
| 20260831020050 | 88 | 0 | 0.0 | 5.0 | 0.00 | 0.00 | 0.00 | 62 | 1017.0 |
| 20260831014603 | 88 | 0 | 0.0 | 3.0 | 0.00 | 0.00 | 0.00 | 61 | 1017.0 |
| 20260831013054 | 88 | 107 | 0.0 | 3.0 | 0.00 | 0.00 | 0.00 | 61 | 1016.8 |
| 20260831011553 | 89 | 0 | 0.0 | 4.0 | 0.00 | 0.00 | 0.00 | 60 | 1016.6 |
| 20260831010052 | 89 | 0 | 0.0 | 4.0 | 0.00 | 0.00 | 0.00 | 60 | 1016.4 |
| 20260831004548 | 90 | 0 | 0.0 | 2.0 | 0.00 | 0.00 | 0.00 | 59 | 1016.3 |
| 20260831003058 | 90 | 0 | 0.0 | 3.0 | 0.00 | 0.00 | 0.00 | 58 | 1016.3 |
| 20260831001552 | 91 | 0 | 0.0 | 4.0 | 0.00 | 0.00 | 0.00 | 57 | 1016.3 |
| 20260831000049 | 91 | 0 | 0.0 | 1.0 | 0.00 | 0.00 | 0.00 | 57 | 1016.3 |
| 20260830234603 | 92 | 115 | 0.0 | 3.0 | 0.00 | 0.00 | 0.00 | 56 | 1016.3 |
| 20260830233052 | 92 | 0 | 0.0 | 6.0 | 0.00 | 0.00 | 0.00 | 54 | 1016.2 |
| 20260830231551 | 93 | 58 | 1.0 | 5.0 | 0.00 | 0.00 | 0.00 | 53 | 1016.1 |
| 20260830224557 | 94 | 0 | 1.0 | 6.0 | 0.00 | 0.00 | 0.00 | 50 | 1016.1 |
| 20260830223052 | 94 | 258 | 0.0 | 5.0 | 0.00 | 0.00 | 0.00 | 50 | 1016.1 |
| 20260830221548 | 94 | 202 | 3.0 | 9.0 | 0.00 | 0.00 | 0.00 | 50 | 1016.2 |
| 20260830220101 | 94 | 0 | 1.0 | 10.0 | 0.00 | 0.00 | 0.00 | 50 | 1016.3 |
| 20260830214614 | 94 | 0 | 0.0 | 2.0 | 0.00 | 0.00 | 0.00 | 49 | 1016.2 |
| 20260830213057 | 95 | 192 | 1.0 | 6.0 | 0.00 | 0.00 | 0.00 | 49 | 1016.3 |
| 20260830211555 | 95 | 0 | 0.0 | 7.0 | 0.00 | 0.00 | 0.00 | 49 | 1016.4 |
| 20260830210052 | 95 | 142 | 1.0 | 6.0 | 0.00 | 0.00 | 0.00 | 48 | 1016.5 |
| 20260830204602 | 96 | 0 | 0.0 | 3.0 | 0.00 | 0.00 | 0.00 | 48 | 1016.7 |
| 20260830203056 | 96 | 0 | 1.0 | 6.0 | 0.00 | 0.00 | 0.00 | 48 | 1016.7 |
| 20260830201553 | 95 | 0 | 4.0 | 8.0 | 0.00 | 0.00 | 0.00 | 49 | 1017.0 |
| 20260830200059 | 95 | 0 | 0.0 | 6.0 | 0.00 | 0.00 | 0.00 | 48 | 1017.1 |
| 20260830194606 | 95 | 0 | 1.0 | 6.0 | 0.00 | 0.00 | 0.00 | 49 | 1017.4 |